Location: Hoover
(45.1124°N, 103.2678°W)
Time: 04:05:23
(UTC+00:00)

N. Korean satellite - Pass Details

Date: 25 November 2020
Orbit: 453 x 502 km, 97.2° (Epoch: 16 January)

Event Time Altitude Azimuth Distance (km) Brightness Sun altitude
Rises 00:08:15 0° 191° (S) 2,452 10.6 -9.2°
Reaches altitude 10° 00:10:28 10° 204° (SSW) 1,585 9.8 -9.6°
Maximum altitude 00:13:25 27° 264° (W) 904 8.9 -10.1°
Drops below altitude 10° 00:16:24 10° 325° (NW) 1,604 9.4 -10.6°
Sets 00:18:40 0° 337° (NNW) 2,489 10.2 -11.0°
